Location: Unspecified
(43.4354°N, 0.0000°E)
Time: 15:09:18
(UTC+00:00)

S-56A Canister/Altair - Pass Details

Date: 03 July 2019
Orbit: 632 x 2500 km, 38.9° (Epoch: 15 July)

Event Time Altitude Azimuth Distance (km) Brightness Sun altitude
Rises 11:28:53 0° 225° (SW) 6,168 12.3 68.3°
Reaches altitude 10° 11:33:13 10° 220° (SW) 5,140 12.0 68.5°
Maximum altitude 11:46:52 47° 154° (SSE) 2,734 11.8 69.2°
Drops below altitude 10° 11:57:30 10° 85° (E) 4,059 11.4 69.5°
Sets 12:00:28 0° 80° (E) 4,815 11.6 69.5°
